GFSFLT1_prec_cthk_327.txt.gz
RH
7 7 13 35 51 59 60 65 69 63 47 30 37 60 84 97 97 99 95 86 74 68 63 71 68 53 55 44 30 34 47 57
12 9 13 32 49 57 60 61 68 68 54 36 30 45 65 90 90 99 95 93 78 70 58 49 39 42 39 37 32 36 46 41
11 14 14 29 46 53 56 56 65 67 62 41 28 38 53 72 84 92 98 93 84 67 61 46 39 38 37 39 33 37 38 45
9 13 23 27 40 50 58 53 63 68 67 52 26 36 48 62 76 99 95 88 82 66 44 38 34 36 34 36 35 33 39 52
9 11 16 29 41 49 57 55 65 72 72 60 32 28 36 44 58 72 79 81 72 59 46 36 31 34 39 35 33 37 44 49
11 9 13 21 48 51 59 59 69 74 73 65 46 28 31 37 45 58 71 79 75 62 39 31 28 34 40 33 34 39 41 44
13 11 14 18 51 52 52 62 74 77 77 70 57 33 29 32 37 44 57 67 75 59 40 30 31 33 40 32 34 37 46 50
42 34 20 24 41 48 43 58 78 78 83 74 70 40 28 26 30 36 50 56 61 56 39 31 31 33 35 34 38 50 55 66
44 40 30 30 40 55 48 51 75 77 81 78 75 63 34 31 23 30 40 46 51 51 39 37 33 34 34 32 34 42 56 60
52 43 37 35 37 54 48 52 70 83 80 83 81 74 45 27 28 22 31 36 42 41 38 33 32 33 34 35 34 38 48 56
57 47 39 37 44 62 49 51 65 84 79 78 77 83 64 38 27 20 22 30 33 37 35 31 30 33 35 34 35 36 41 47
57 51 43 43 50 52 73 52 61 83 78 77 76 77 86 52 37 22 18 23 28 30 30 25 26 29 31 31 31 33 37 42
64 61 50 42 50 47 73 58 50 76 76 78 76 77 83 74 52 35 20 20 23 25 25 25 23 26 29 29 29 31 36 41
73 70 59 51 43 46 46 75 55 77 78 77 79 78 76 83 70 54 33 22 24 22 25 24 26 29 30 29 29 31 35 41
81 80 68 59 55 44 44 55 58 69 87 80 78 77 77 78 80 72 52 30 22 24 24 26 29 31 34 35 36 39 41 43
89 79 72 68 61 52 48 57 56 73 91 78 73 77 79 80 79 80 82 53 27 24 25 27 31 35 37 38 40 44 42 47
88 82 75 72 70 64 57 60 60 64 73 78 79 73 79 80 72 74 81 79 74 53 37 32 31 32 35 38 37 40 47 51
91 88 81 77 73 71 69 62 63 68 70 64 69 78 85 83 76 70 77 78 78 80 77 65 58 47 40 43 49 52 56 62
91 88 90 83 75 75 75 72 69 73 81 74 74 94 95 82 76 72 69 69 74 77 76 87 88 75 69 59 61 60 62 65

GFSFLT1_prec_cthk_333.txt.gz
RH
18 21 13 13 16 15 26 31 35 57 64 79 74 68 62 68 76 94 95 97 89 74 65 74 80 84 82 86 75 95 95 73
20 21 21 23 23 16 23 32 35 52 65 76 81 72 67 63 69 82 89 97 96 87 76 82 83 82 89 91 88 88 80 53
24 23 23 26 23 23 19 22 28 39 63 68 82 83 75 66 72 78 86 87 94 90 88 94 91 90 92 92 93 82 62 38
30 27 26 29 31 47 30 22 23 32 52 65 85 91 83 74 70 65 69 85 94 91 91 88 91 94 94 93 93 84 49 32
37 34 29 30 29 35 60 47 25 27 40 60 71 94 88 81 70 72 64 74 75 91 89 79 88 90 97 96 91 81 43 26
43 42 37 36 32 36 49 67 50 31 35 48 59 80 96 84 81 75 63 64 66 82 77 80 90 98 96 91 85 66 33 25
42 46 43 39 36 36 41 68 76 44 30 38 55 64 89 89 80 68 68 59 64 83 83 89 89 94 94 68 58 39 32 24
53 45 43 40 40 40 41 48 87 79 50 34 46 61 67 82 78 70 65 62 55 60 78 75 80 90 83 62 44 31 30 26
73 59 48 42 42 43 40 46 53 88 76 76 48 56 56 73 74 70 64 56 50 49 63 65 78 84 74 61 49 50 45 28
84 73 60 50 43 44 46 45 52 74 79 63 74 63 67 63 73 76 68 58 42 46 57 57 66 78 71 51 43 35 31 27
85 79 68 58 47 44 45 49 49 57 79 70 57 65 68 75 77 80 76 66 48 38 47 53 67 80 72 58 44 36 30 31
85 79 74 67 57 48 45 46 50 48 64 82 70 58 67 72 76 82 83 74 59 38 39 46 54 64 71 66 59 38 32 32
84 77 72 66 60 51 47 45 46 46 47 85 88 64 67 72 81 80 82 78 70 44 27 43 44 52 69 60 53 45 30 29
80 72 69 66 62 56 50 48 49 47 47 60 80 84 67 70 77 85 83 78 77 64 32 35 49 45 54 62 51 43 33 27
74 70 63 59 59 59 55 54 50 53 50 54 66 89 76 74 72 88 85 78 80 73 48 30 41 50 41 48 52 49 46 33
69 61 64 62 57 53 52 52 55 56 50 56 66 70 86 82 78 76 96 87 88 81 63 35 30 41 50 43 38 44 46 45
65 64 63 65 63 62 57 54 56 57 57 62 62 71 64 96 80 83 90 94 92 91 88 60 35 30 37 45 42 38 42 45
63 65 63 70 70 73 67 64 61 62 62 65 68 66 69 87 84 78 75 90 88 87 88 78 49 32 26 26 32 35 36 40
68 68 62 63 78 80 75 71 71 68 66 72 72 67 68 78 97 75 87 97 85 85 84 77 55 39 32 25 25 25 23 25

GFSFLT1_prec_cthk_336.txt.gz
RH
26 23 21 20 21 31 33 25 30 30 38 54 70 76 74 75 68 78 87 94 97 96 77 48 48 52 58 60 68 83 86 88
31 27 24 23 22 29 46 40 27 30 36 46 58 72 78 77 76 74 95 92 98 96 85 56 55 59 63 64 76 90 92 92
37 31 28 28 29 34 44 58 50 23 28 35 46 61 76 80 79 71 76 94 90 91 88 61 60 72 69 78 77 91 95 96
46 42 35 32 36 39 44 46 63 53 32 35 51 63 77 85 79 72 77 75 85 84 85 79 79 94 96 88 90 84 89 97
56 53 49 42 39 43 48 51 57 73 60 52 38 47 58 75 82 76 77 78 77 75 80 90 92 94 98 95 94 93 92 86
63 60 57 50 43 44 48 56 58 69 80 63 54 45 50 63 84 82 85 79 71 61 78 84 90 91 98 97 96 98 97 87
71 65 62 57 49 46 46 50 64 64 78 71 72 59 52 57 75 91 82 83 77 67 72 73 74 83 93 97 99 97 93 87
83 70 64 60 53 49 50 52 56 67 69 84 84 72 70 55 65 81 86 76 79 69 60 68 72 80 91 96 95 98 90 86
87 81 70 62 59 56 54 54 52 61 73 86 94 79 71 75 71 59 71 77 72 72 63 60 67 76 82 87 96 89 85 73
84 86 79 68 63 58 60 56 53 53 58 86 96 92 75 81 83 73 79 85 75 73 70 67 59 68 70 83 86 71 60 55
89 78 83 74 67 60 60 59 57 54 52 51 84 91 91 84 79 75 76 88 86 72 76 71 68 68 71 79 78 71 59 49
85 91 84 83 72 63 60 57 60 58 49 47 52 78 89 92 87 80 74 81 89 75 77 70 66 75 66 76 69 65 64 55
84 87 92 96 81 73 66 63 60 61 58 48 46 55 68 83 85 84 80 83 85 87 71 71 67 74 57 67 71 72 58 49
78 79 83 91 87 78 73 67 62 62 62 57 57 61 74 87 83 75 85 84 84 90 89 66 66 65 56 54 66 77 70 55
72 74 72 81 84 79 78 71 62 62 58 57 53 50 53 75 97 83 75 85 86 86 86 77 62 58 51 53 56 72 74 65
72 69 68 69 78 80 72 70 65 60 59 53 53 50 49 61 86 85 83 80 82 87 88 90 71 58 53 51 53 62 69 63
67 68 66 65 66 69 64 64 65 60 56 53 53 51 47 46 61 89 91 82 78 86 92 95 90 68 57 47 53 53 58 64
66 68 70 69 67 67 61 60 59 58 55 53 47 49 50 45 57 78 87 94 76 86 87 88 92 86 63 48 47 53 53 49
59 59 66 67 59 55 57 59 57 56 57 52 49 46 50 50 48 53 62 80 83 86 91 89 86 88 70 53 38 46 51 48

GFSFLT1_prec_cthk_339.txt.gz
RH
27 26 25 27 27 24 31 37 48 51 63 50 45 55 73 77 75 73 74 99 93 88 84 82 79 89 89 94 91 63 65 69
32 30 31 29 32 29 33 38 44 59 63 57 42 44 61 74 81 75 73 84 89 95 81 68 58 59 66 73 70 62 66 76
30 34 33 34 36 36 35 37 44 50 66 62 59 47 59 71 84 80 83 82 94 95 89 78 54 53 52 53 63 66 82 85
31 36 41 39 39 42 39 46 45 46 60 69 66 60 71 70 82 87 78 85 87 87 88 82 79 59 53 53 61 68 84 91
36 35 44 47 44 46 44 47 46 47 53 74 67 59 64 60 67 81 84 88 84 91 90 80 78 70 63 63 63 64 80 88
41 39 42 52 54 50 51 51 48 54 59 60 81 66 74 60 76 77 87 87 78 90 87 88 80 76 74 79 73 75 77 86
46 44 44 52 58 58 56 55 51 57 58 55 76 77 68 80 63 75 78 89 84 82 87 89 80 83 81 91 89 89 93 88
51 49 48 55 60 64 60 59 54 60 61 61 68 90 70 79 73 72 76 88 89 82 84 74 78 84 83 90 97 98 99 96
58 57 53 58 68 70 67 60 58 58 63 71 69 69 94 85 75 70 72 83 89 86 78 76 76 79 79 86 95 98 98 98
64 64 62 62 72 76 75 65 60 62 66 69 75 78 86 88 85 87 76 77 85 87 89 75 67 68 84 87 91 93 98 99
76 71 70 68 79 84 81 72 64 63 64 65 70 79 85 89 90 93 79 77 85 88 91 76 72 65 68 87 86 91 95 98
79 79 70 76 78 87 86 79 69 68 65 60 56 62 80 91 86 93 90 82 82 83 88 88 77 71 64 66 78 79 91 95
82 80 73 77 83 83 88 83 73 68 69 63 60 56 58 75 96 97 97 91 88 88 86 97 78 70 77 76 71 74 82 82
83 81 79 76 82 82 82 84 78 68 71 65 59 58 56 57 68 68 77 97 96 95 94 95 95 73 73 76 82 74 74 79
78 81 79 78 75 79 80 80 79 72 65 69 63 58 56 54 62 65 79 90 90 99 92 94 92 88 74 79 82 76 69 70
63 71 78 78 75 75 78 81 77 72 68 65 65 58 56 56 54 62 73 83 90 92 94 96 93 95 87 79 79 85 66 73
62 61 70 74 75 71 65 70 74 76 72 67 63 58 48 52 53 50 58 68 88 85 94 90 96 96 88 78 72 80 74 58
58 62 61 63 68 67 63 66 72 81 71 66 64 62 57 49 46 47 49 54 63 70 76 94 93 95 95 99 80 67 72 63
56 58 59 64 67 70 66 65 66 68 71 67 66 66 63 55 50 42 44 48 51 62 68 83 88 85 93 89 99 82 69 58

GFSFLT1_prec_cthk_345.txt.gz
RH
26 24 21 20 26 28 34 33 32 30 34 39 46 52 54 55 55 64 77 81 82 84 94 99 98 95 95 98 98 95 97 93
32 28 26 24 20 23 27 34 34 33 33 39 45 50 52 55 56 59 70 81 85 84 92 99 97 98 96 98 99 98 99 95
37 34 31 29 27 22 24 30 35 37 38 39 43 48 51 53 63 59 63 73 86 88 97 96 99 97 99 98 99 99 99 97
38 39 37 34 30 27 24 27 33 38 38 38 45 46 51 56 65 64 60 70 85 91 97 98 97 93 95 96 99 99 98 98
40 40 40 39 36 33 31 27 31 37 40 40 40 46 48 59 66 63 66 69 76 92 97 95 96 93 91 94 99 99 98 96
45 42 42 41 40 37 35 32 29 35 42 43 43 51 55 52 61 64 69 70 78 83 94 95 94 93 85 91 99 99 99 97
53 47 45 43 43 41 37 35 33 33 39 45 47 46 56 54 62 69 72 74 76 82 87 94 97 87 79 82 93 96 99 98
63 54 48 44 42 43 41 37 34 33 37 45 50 50 51 62 62 68 79 78 78 81 91 92 99 94 85 83 81 87 89 95
70 65 55 47 45 44 45 42 38 35 36 42 49 54 53 60 64 66 73 85 78 78 88 95 96 96 93 89 84 89 83 78
72 68 61 54 48 49 46 46 44 39 37 41 46 55 56 54 58 59 67 82 88 78 84 94 98 98 98 94 92 89 84 78
71 70 64 60 55 52 52 49 48 45 42 42 46 52 56 55 56 62 68 78 80 87 86 90 94 96 98 99 94 92 91 84
65 68 66 63 62 59 57 55 53 49 47 44 46 49 57 58 54 63 66 73 76 84 86 90 92 92 95 98 95 93 92 88
62 63 67 61 66 68 61 61 57 55 49 48 47 49 51 58 57 56 65 64 80 73 95 86 86 95 97 97 92 98 95 92
59 60 60 66 61 68 69 63 63 58 53 51 48 48 50 56 58 57 61 63 67 81 83 90 95 97 94 99 98 96 95 95
57 59 57 59 65 62 70 69 63 61 59 52 49 48 51 52 58 57 56 58 65 71 75 85 87 90 94 96 99 98 93 90
46 52 54 54 62 68 69 76 68 65 61 57 50 50 54 56 55 58 57 57 54 57 67 83 83 94 94 90 84 94 94 83
47 46 47 50 57 72 73 75 75 70 68 63 53 53 59 58 55 57 54 52 53 52 54 65 70 66 76 82 86 96 98 96
50 44 42 44 55 66 77 76 76 75 76 71 59 58 61 62 57 60 60 53 52 53 53 57 67 71 69 73 83 90 97 99
53 46 41 40 48 61 68 75 76 74 82 80 72 65 66 67 61 61 66 64 58 55 59 62 64 69 67 72 77 72 87 99

GFSFLT1_prec_cthk_351.txt.gz
RH
30 30 28 26 25 25 29 28 30 34 36 36 37 39 43 45 52 61 64 64 67 74 83 85 88 95 97 99 98 96 92 88
32 32 34 30 29 27 26 29 26 28 31 33 31 34 37 40 46 55 61 61 58 67 77 85 89 96 98 96 96 96 96 94
37 35 31 34 34 32 30 28 30 27 28 30 32 32 34 36 38 48 56 63 61 62 67 75 88 95 94 97 93 98 98 96
45 42 36 33 35 36 34 33 31 31 28 27 28 30 32 35 40 40 51 55 59 61 62 72 80 98 90 95 96 98 99 97
51 48 44 40 36 37 39 38 35 32 29 28 28 29 32 36 39 39 46 50 53 59 68 63 76 82 99 98 98 98 96 96
53 54 52 45 43 39 40 40 41 37 34 29 28 30 31 36 39 41 45 48 52 59 67 69 70 75 90 98 99 95 98 96
59 60 59 52 49 46 43 41 41 42 39 34 30 29 30 33 40 41 42 48 49 53 64 77 69 73 83 95 97 97 99 98
72 65 65 59 55 53 51 46 42 41 42 40 35 30 31 31 35 41 42 48 48 51 61 68 75 74 80 94 94 95 97 98
75 75 72 69 58 55 55 53 48 43 41 40 40 35 32 33 31 34 40 47 56 49 53 59 83 73 81 87 95 93 95 96
70 74 76 73 72 59 56 59 53 50 45 41 40 40 36 34 34 33 34 41 47 49 58 52 64 83 75 84 86 97 98 97
64 68 71 76 70 67 67 58 59 54 51 46 42 41 40 37 35 34 32 36 44 57 56 54 58 65 86 80 86 89 94 94
60 62 62 72 69 67 63 66 61 60 55 51 48 44 42 40 38 37 34 33 40 48 52 61 57 60 79 89 88 91 89 90
62 63 59 64 64 63 62 70 67 66 63 56 52 50 45 43 40 39 37 36 37 47 53 56 62 62 64 85 85 95 93 98
68 59 61 61 64 62 57 62 71 75 70 66 60 54 49 46 43 40 39 39 39 43 49 56 59 62 63 65 87 93 90 94
68 63 61 61 68 62 62 64 70 77 81 74 68 60 55 51 47 43 41 40 40 39 45 52 59 63 62 64 66 98 93 87
67 68 64 62 63 62 63 67 67 77 86 84 77 69 62 58 52 46 43 43 41 41 41 47 56 57 59 57 65 72 87 88
64 67 69 63 60 56 61 67 64 76 83 90 85 77 69 64 58 52 47 45 45 43 43 45 48 54 56 59 61 65 75 81
67 69 68 65 61 56 59 60 62 73 81 94 91 86 76 68 63 58 52 49 46 47 46 46 47 50 54 61 61 61 65 72
62 68 68 65 58 57 57 57 60 70 80 95 95 93 85 77 70 63 58 55 51 49 50 49 49 51 53 55 61 65 66 67